Find Starlink 11433

NORAD ID: 62008 Int'l Des: 2024-213 Owner: SPXS Country: US Constellation: starlink operational
LEOCIRCULAR

Current View

Loading 3D Globe...

About Starlink 11433

Starlink 11433 (NORAD 62008) is a starlink constellation satellite (v2 mini d2c) launched Nov 18, 2024 by SPXS of US. It operates in LEO, CIRCULAR orbit with a mass of 960.00 kg.

About Starlink 11433

Description loading...

Upcoming Passes

Passes for default location (London). Set your location on the main map for personalized predictions.

Altitude History

Loading altitude history...

Two-Line Element Set

1 62008U 24213A 26174.48355361 .00151640 00000-0 12333-2 0 9994
2 62008 53.1572 239.5606 0001437 47.5554 312.5585 15.69718964 91530
Epoch: Jun 23, 2026 • Age: 18 hours

Current Status

Altitude 361.2 km
Velocity 7.69 km/s
Sub-Earth Point -3.58°S, 68.32°E
Launch Date Nov 18, 2024
Age 1.5 years
Type internet

Technical Details

Classification Payload
Mass 960.00 kg
Dry Mass 910.00 kg
Total Mass 960.00 kg
Length 0.30 m
Diameter 4.10 m
Span 29.00 m
Shape Box + pan
Manufacturer SPXS
Bus Type Starlink V2MD
Phase Status In Orbit
Owner/State SPXS/US

Most Searched